FW4773 Weather Reports


Display with metric or nautical units.
time (UTC)temp
F
wind
direction
speed
MPH
gust
MPH
rain 1hr
in
rain 24hr
in
rain mn
in
humidity
%
barometer
mb
20260901021539 77 177 0.0 2.0 0.00 0.00 0.00 90 1021.1
20260901020038 78 224 0.0 4.0 0.00 0.00 0.00 90 1020.9
20260901014534 77 211 0.0 2.0 0.00 0.01 0.00 90 1020.9
20260901013040 77 151 0.0 0.0 0.00 0.01 0.00 89 1021.0
20260901011531 77 151 0.0 0.0 0.00 0.01 0.00 88 1021.0
20260901010034 78 151 0.0 0.0 0.00 0.01 0.00 88 1021.0
20260901004527 78 101 0.0 0.0 0.00 0.01 0.00 87 1020.7
20260901003025 78 101 0.0 0.0 0.00 0.01 0.00 86 1020.7
20260901001534 79 101 0.0 0.0 0.00 0.01 0.00 85 1020.6
20260901000029 80 101 0.0 0.0 0.00 0.01 0.00 83 1020.7
20260831234521 80 102 0.0 1.0 0.00 0.01 0.00 82 1020.6
20260831233018 80 101 0.0 0.0 0.00 0.01 0.00 80 1020.7
20260831231516 81 102 0.0 1.0 0.00 0.01 0.00 79 1020.8
20260831230014 81 101 0.0 3.0 0.00 0.01 0.00 79 1020.9
20260831224511 81 120 1.0 5.0 0.00 0.01 0.00 78 1021.0
20260831223009 82 93 0.0 2.0 0.00 0.01 0.00 78 1021.2
20260831221507 82 92 1.0 4.0 0.00 0.01 0.00 77 1021.3
20260831220006 83 203 0.0 2.0 0.00 0.01 0.00 76 1021.4
20260831214503 84 88 0.0 2.0 0.00 0.01 0.00 77 1021.2
20260831213003 84 105 0.0 3.0 0.00 0.01 0.00 76 1021.2
20260831211601 84 98 0.0 1.0 0.00 0.01 0.00 75 1021.0
20260831210114 85 63 0.0 2.0 0.00 0.01 0.00 74 1021.0
20260831204558 85 54 1.0 3.0 0.00 0.01 0.00 74 1020.9
20260831203103 85 4 0.0 3.0 0.00 0.01 0.00 74 1021.0
20260831201552 85 56 1.0 3.0 0.00 0.01 0.00 74 1020.9
20260831200050 84 82 0.0 4.0 0.00 0.01 0.00 74 1021.1
20260831194553 84 75 2.0 6.0 0.00 0.01 0.00 74 1021.2
20260831193046 85 75 1.0 3.0 0.00 0.01 0.00 73 1021.3
20260831191555 85 100 3.0 7.0 0.00 0.01 0.00 73 1021.4
20260831190044 85 101 1.0 4.0 0.00 0.01 0.00 72 1021.5
20260831184637 86 103 1.0 3.0 0.00 0.01 0.00 72 1021.7
20260831183036 85 291 1.0 5.0 0.00 0.01 0.00 72 1021.6
20260831181533 86 350 0.0 5.0 0.00 0.01 0.00 72 1021.7
20260831180032 86 128 0.0 4.0 0.00 0.01 0.00 72 1021.6
20260831174527 85 207 1.0 5.0 0.00 0.01 0.00 74 1021.8
20260831173025 86 84 1.0 4.0 0.00 0.01 0.00 72 1022.1
20260831171524 86 51 1.0 4.0 0.00 0.01 0.00 72 1022.2
20260831170024 85 108 0.0 5.0 0.00 0.01 0.00 74 1022.3
20260831164513 84 120 1.0 3.0 0.00 0.01 0.00 76 1022.2
20260831163010 82 8 0.0 5.0 0.00 0.01 0.00 78 1022.5
20260831161505 81 100 0.0 5.0 0.00 0.01 0.00 79 1022.6
20260831160001 81 111 1.0 4.0 0.00 0.01 0.00 80 1022.5
20260831154559 81 91 1.0 4.0 0.00 0.01 0.00 80 1022.5
20260831153055 80 80 0.0 5.0 0.00 0.01 0.00 81 1022.5
20260831151552 80 71 2.0 7.0 0.00 0.01 0.00 81 1022.4
20260831144550 79 77 2.0 6.0 0.00 0.01 0.00 83 1022.4
20260831143047 79 136 3.0 10.0 0.00 0.01 0.00 82 1022.4
20260831141547 79 38 4.0 9.0 0.00 0.01 0.00 82 1022.4
20260831140040 80 33 3.0 8.0 0.00 0.01 0.00 82 1022.5
20260831134541 79 109 0.0 6.0 0.00 0.01 0.00 84 1022.5
20260831133037 78 86 1.0 8.0 0.00 0.01 0.00 86 1022.4
20260831131552 77 91 3.0 7.0 0.00 0.01 0.00 89 1022.4
20260831130022 76 71 0.0 3.0 0.00 0.01 0.00 92 1022.4
20260831124535 75 218 0.0 0.0 0.00 0.01 0.00 93 1022.3
20260831123010 74 245 0.0 1.0 0.00 0.01 0.00 93 1022.4
20260831121505 73 207 0.0 2.0 0.00 0.01 0.00 93 1022.3
20260831120101 73 10 0.0 0.0 0.00 0.01 0.00 95 1022.2
20260831114556 72 10 0.0 0.0 0.00 0.01 0.00 96 1022.0
20260831113053 71 9 0.0 1.0 0.00 0.01 0.00 95 1021.7
20260831111550 0 0.0 0.0 0.00 0.01 0.00 1021.7
20260831110045 0 0.0 0.0 0.00 0.01 0.00 1021.6
20260831104548 0 0.0 0.0 0.00 0.01 0.00 1021.3
20260831103037 0 0.0 0.0 0.00 0.01 0.00 1021.2
20260831101528 0 0.0 0.0 0.00 0.01 0.00 1021.3
20260831100026 0 0.0 0.0 0.00 0.01 0.00 1021.1
20260831094518 0 211 0.0 0.0 0.00 0.01 0.00 1021.2
20260831093024 70 209 0.0 0.0 0.00 0.01 0.00 95 1021.1
20260831091513 71 209 0.0 0.0 0.00 0.01 0.00 95 1021.1
20260831090012 71 209 0.0 0.0 0.00 0.01 0.00 95 1021.0
20260831084512 71 209 0.0 1.0 0.00 0.01 0.00 95 1021.0
20260831083009 71 209 1.0 2.0 0.00 0.01 0.00 95 1021.0
20260831081505 71 212 0.0 0.0 0.00 0.01 0.00 95 1021.1
20260831080003 71 211 0.0 0.0 0.00 0.01 0.00 95 1021.1
20260831074501 70 212 0.0 0.0 0.00 0.01 0.00 95 1021.1
20260831073101 71 211 0.0 0.0 0.00 0.01 0.00 95 1021.0
20260831071558 71 211 0.0 0.0 0.00 0.01 0.00 95 1021.1
20260831070057 71 211 0.0 0.0 0.00 0.01 0.00 95 1021.1
20260831064552 71 211 0.0 1.0 0.00 0.01 0.00 95 1021.2
20260831063049 71 211 0.0 0.0 0.00 0.01 0.00 95 1021.1
20260831061550 71 211 0.0 1.0 0.00 0.01 0.00 95 1021.5
20260831060044 72 211 0.0 0.0 0.00 0.01 0.00 95 1021.5
20260831054541 72 211 0.0 1.0 0.00 0.01 0.00 94 1021.5
20260831053039 72 211 0.0 1.0 0.00 0.01 0.00 94 1021.5
20260831051536 72 211 0.0 0.0 0.00 0.01 0.00 94 1021.4
20260831050045 72 211 0.0 1.0 0.00 0.01 0.00 94 1021.5
20260831044530 73 211 0.0 0.0 0.00 0.01 0.00 94 1021.4
20260831043027 73 211 0.0 0.0 0.00 0.01 0.00 94 1021.6
20260831041524 73 211 0.0 0.0 0.00 0.01 0.00 94 1021.6
20260831040025 73 211 0.0 0.0 0.00 0.01 0.01 94 1021.7
20260831034517 74 211 0.0 0.0 0.00 0.01 0.01 93 1021.8
20260831033019 74 212 0.0 0.0 0.00 0.01 0.01 93 1021.7
20260831031523 74 211 0.0 0.0 0.00 0.01 0.01 93 1021.8
20260831030012 74 211 0.0 0.0 0.00 0.01 0.01 92 1021.9
20260831024517 75 211 0.0 0.0 0.00 0.01 0.01 92 1022.1
20260831023009 75 211 0.0 0.0 0.00 0.01 0.01 92 1022.1